Карточка аэропорта UNKL

Внимание!
Информация на этой странице в стадии наполнения.
Если вы не увидели какой-то информации, или заметили неточность - пожалуйста сообщите нам!
Спасибо!
Команда RU-STAFF
Название аэропортаЕмельяново
Название аэропорта (англ.)Yemelyanovo
Превышение942 ft. (287.1 m.)
Координаты56°10.386', 92°29.598'
Высота перехода1100m
Эшелон переходаFL060
Коды ответчика5320-5377
Зона ОрВДКрасноярск РПИ (UNKL)
Данные METARUNKL 141230Z 21003MPS 9999 FEW040CB 16/14 Q1003 R29/290155 NOSIG RMK QFE727
Проноз погоды (TAF)UNKL 141052Z 1412/1512 24003G08MPS 6000 -SHRA BKN016CB TEMPO 1412/1418 29008G16MPS 1500 TSRA BKN007 BKN016CB BECMG 1501/1503 26008G17MPS TEMPO 1503/1512 -TSRA
NOTAMshow/hide NOTAM
AWOS   TABLE

Информация о ВПП

ВПП Длина ВПП (м.) Покрытие Курс ВПП Частота ILS
113700Асфальтобетон109110.5
293700Асфальтобетон289111.7

Диспетчерские позиции

Позывной Наименование органа УВД Частота
UNKL_APPКрасноярск-Подход127.7
UNKL_R_APPКрасноярск-Круг122.0
UNKL_TWRКрасноярск-Старт/Посадка118.3
UNKL_GNDКрасноярск-Руление121.9



Спутниковое изображение